| time (UTC) | temp F | wind direction | speed MPH | gust MPH | rain 1hr in | rain 24hr in | rain mn in | humidity % | barometer mb |
| 20260505115017 | 55 | 0.0 | 0.0 | 0.00 | 0.50 | 0.46 | 96 | 1007.8 | |
| 20260505114037 | 55 | 0.0 | 0.0 | 0.00 | 0.50 | 0.46 | 96 | 1007.8 | |
| 20260505113017 | 55 | 0.0 | 0.0 | 0.00 | 0.50 | 0.46 | 96 | 1007.8 | |
| 20260505112017 | 55 | 0.0 | 0.0 | 0.01 | 0.50 | 0.46 | 96 | 1007.4 | |
| 20260505111017 | 55 | 0.0 | 0.0 | 0.01 | 0.50 | 0.46 | 96 | 1007.4 | |
| 20260505102037 | 55 | 0.0 | 2.0 | 0.00 | 0.49 | 0.45 | 95 | 1007.5 | |
| 20260505101017 | 55 | 248 | 1.0 | 4.0 | 0.00 | 0.49 | 0.45 | 95 | 1007.9 |
| 20260505100058 | 55 | 0.0 | 3.0 | 0.01 | 0.49 | 0.45 | 95 | 1007.5 | |
| 20260505095018 | 55 | 0.0 | 0.0 | 0.04 | 0.49 | 0.45 | 95 | 1006.9 | |
| 20260505094017 | 55 | 0.0 | 0.0 | 0.07 | 0.49 | 0.45 | 95 | 1007.0 | |
| 20260505093017 | 55 | 0.0 | 5.0 | 0.10 | 0.49 | 0.45 | 95 | 1007.1 | |
| 20260505092017 | 55 | 0.0 | 4.0 | 0.14 | 0.49 | 0.45 | 95 | 1006.9 | |
| 20260505091017 | 55 | 135 | 1.0 | 4.0 | 0.16 | 0.49 | 0.45 | 95 | 1006.7 |
| 20260505090017 | 55 | 0.0 | 4.0 | 0.18 | 0.48 | 0.44 | 95 | 1007.5 | |
| 20260505085017 | 56 | 0.0 | 0.0 | 0.16 | 0.45 | 0.41 | 95 | 1008.3 | |
| 20260505084038 | 56 | 0.0 | 4.0 | 0.14 | 0.42 | 0.38 | 95 | 1008.6 | |
| 20260505083017 | 56 | 0.0 | 0.0 | 0.12 | 0.39 | 0.35 | 94 | 1008.7 | |
| 20260505082017 | 56 | 0.0 | 0.0 | 0.08 | 0.35 | 0.32 | 94 | 1008.2 | |
| 20260505081017 | 56 | 0.0 | 0.0 | 0.09 | 0.33 | 0.29 | 94 | 1008.3 | |
| 20260505080017 | 56 | 0.0 | 0.0 | 0.09 | 0.30 | 0.26 | 94 | 1008.4 | |
| 20260505075017 | 56 | 0.0 | 3.0 | 0.12 | 0.29 | 0.25 | 94 | 1008.6 | |
| 20260505074037 | 56 | 0.0 | 0.0 | 0.14 | 0.28 | 0.24 | 94 | 1008.8 | |
| 20260505073018 | 56 | 0.0 | 0.0 | 0.14 | 0.27 | 0.23 | 94 | 1008.7 | |
| 20260505072017 | 56 | 0.0 | 0.0 | 0.14 | 0.27 | 0.23 | 93 | 1008.1 | |
| 20260505071017 | 56 | 0.0 | 1.0 | 0.12 | 0.24 | 0.20 | 93 | 1008.2 | |
| 20260505070017 | 56 | 0.0 | 3.0 | 0.10 | 0.21 | 0.17 | 92 | 1007.9 | |
| 20260505065017 | 57 | 0.0 | 3.0 | 0.10 | 0.17 | 0.13 | 92 | 1007.0 | |
| 20260505064017 | 57 | 0.0 | 3.0 | 0.09 | 0.14 | 0.10 | 92 | 1006.8 | |
| 20260505063017 | 58 | 0.0 | 0.0 | 0.09 | 0.13 | 0.09 | 91 | 1005.9 | |
| 20260505062017 | 58 | 0.0 | 4.0 | 0.09 | 0.13 | 0.09 | 90 | 1005.7 | |
| 20260505061017 | 58 | 0.0 | 1.0 | 0.08 | 0.12 | 0.08 | 88 | 1006.2 | |
| 20260505060017 | 59 | 0.0 | 0.0 | 0.07 | 0.11 | 0.07 | 85 | 1006.6 | |
| 20260505055017 | 61 | 0.0 | 0.0 | 0.03 | 0.07 | 0.03 | 81 | 1007.1 | |
| 20260505054017 | 63 | 0.0 | 0.0 | 0.01 | 0.05 | 0.01 | 75 | 1007.2 | |
| 20260505053017 | 65 | 0.0 | 2.0 | 0.00 | 0.04 | 0.00 | 66 | 1006.8 | |
| 20260505052037 | 66 | 0.0 | 4.0 | 0.00 | 0.04 | 0.00 | 64 | 1006.2 | |
| 20260505051037 | 67 | 0.0 | 6.0 | 0.00 | 0.04 | 0.00 | 58 | 1006.2 | |
| 20260505041017 | 68 | 248 | 2.0 | 9.0 | 0.00 | 0.04 | 0.00 | 54 | 1004.9 |
| 20260505040017 | 68 | 225 | 1.0 | 10.0 | 0.00 | 0.04 | 0.00 | 54 | 1004.9 |
| 20260505035037 | 68 | 225 | 1.0 | 7.0 | 0.00 | 0.04 | 0.04 | 53 | 1005.1 |
| 20260505034017 | 68 | 203 | 2.0 | 7.0 | 0.00 | 0.04 | 0.04 | 53 | 1005.0 |
| 20260505033017 | 68 | 0.0 | 5.0 | 0.00 | 0.04 | 0.04 | 53 | 1005.0 | |
| 20260505032015 | 68 | 203 | 2.0 | 11.0 | 0.00 | 0.04 | 0.04 | 52 | 1005.0 |
| 20260505031017 | 68 | 0.0 | 3.0 | 0.00 | 0.04 | 0.04 | 53 | 1005.3 | |
| 20260505030017 | 68 | 248 | 3.0 | 10.0 | 0.00 | 0.04 | 0.04 | 53 | 1005.3 |
| 20260505025037 | 68 | 225 | 2.0 | 11.0 | 0.00 | 0.04 | 0.04 | 53 | 1005.3 |
| 20260505024017 | 68 | 225 | 2.0 | 8.0 | 0.00 | 0.04 | 0.04 | 53 | 1005.4 |
| 20260505023017 | 68 | 248 | 1.0 | 5.0 | 0.00 | 0.04 | 0.04 | 53 | 1005.4 |
| 20260505021037 | 69 | 248 | 3.0 | 10.0 | 0.00 | 0.04 | 0.04 | 52 | 1005.4 |
| 20260505020037 | 69 | 225 | 2.0 | 7.0 | 0.00 | 0.04 | 0.04 | 52 | 1005.1 |
| 20260505015017 | 69 | 248 | 2.0 | 6.0 | 0.00 | 0.04 | 0.04 | 52 | 1005.0 |
| 20260505014037 | 69 | 225 | 3.0 | 11.0 | 0.00 | 0.04 | 0.04 | 52 | 1004.9 |
| 20260505013017 | 69 | 248 | 2.0 | 9.0 | 0.00 | 0.04 | 0.04 | 52 | 1004.7 |
| 20260505012017 | 69 | 203 | 1.0 | 8.0 | 0.00 | 0.04 | 0.04 | 53 | 1004.5 |
| 20260505011017 | 70 | 225 | 2.0 | 12.0 | 0.00 | 0.04 | 0.04 | 52 | 1004.3 |
| 20260505010017 | 70 | 225 | 4.0 | 9.0 | 0.00 | 0.04 | 0.04 | 51 | 1004.1 |
| 20260505005017 | 70 | 225 | 3.0 | 12.0 | 0.00 | 0.04 | 0.04 | 52 | 1003.8 |
| 20260505004017 | 70 | 248 | 2.0 | 6.0 | 0.00 | 0.04 | 0.04 | 52 | 1003.7 |
| 20260505003017 | 71 | 225 | 3.0 | 9.0 | 0.00 | 0.04 | 0.04 | 51 | 1003.7 |
| 20260505002017 | 71 | 248 | 2.0 | 8.0 | 0.00 | 0.04 | 0.04 | 51 | 1003.8 |
| 20260505001037 | 72 | 225 | 3.0 | 15.0 | 0.00 | 0.04 | 0.04 | 50 | 1004.0 |
| 20260505000017 | 72 | 248 | 3.0 | 12.0 | 0.00 | 0.04 | 0.04 | 50 | 1004.3 |
| 20260504235017 | 72 | 225 | 2.0 | 10.0 | 0.00 | 0.04 | 0.04 | 50 | 1004.3 |
| 20260504234017 | 73 | 225 | 2.0 | 10.0 | 0.00 | 0.04 | 0.04 | 51 | 1004.3 |
| 20260504233017 | 73 | 203 | 4.0 | 12.0 | 0.00 | 0.04 | 0.04 | 50 | 1004.5 |
| 20260504232017 | 73 | 225 | 3.0 | 12.0 | 0.00 | 0.04 | 0.04 | 51 | 1004.6 |
| 20260504231017 | 73 | 225 | 5.0 | 11.0 | 0.00 | 0.04 | 0.04 | 49 | 1004.8 |
| 20260504230017 | 73 | 225 | 4.0 | 9.0 | 0.00 | 0.04 | 0.04 | 48 | 1004.8 |
| 20260504225017 | 74 | 203 | 3.0 | 14.0 | 0.00 | 0.04 | 0.04 | 48 | 1005.0 |
| 20260504224017 | 74 | 225 | 5.0 | 16.0 | 0.00 | 0.04 | 0.04 | 46 | 1005.2 |
| 20260504223017 | 74 | 225 | 5.0 | 22.0 | 0.00 | 0.04 | 0.04 | 47 | 1005.5 |
| 20260504222017 | 74 | 203 | 4.0 | 12.0 | 0.00 | 0.04 | 0.04 | 45 | 1005.6 |
| 20260504221017 | 75 | 225 | 5.0 | 15.0 | 0.00 | 0.04 | 0.04 | 45 | 1005.6 |
| 20260504220017 | 75 | 203 | 4.0 | 10.0 | 0.00 | 0.04 | 0.04 | 45 | 1005.5 |
| 20260504215017 | 75 | 225 | 6.0 | 14.0 | 0.00 | 0.04 | 0.04 | 45 | 1005.6 |
| 20260504214017 | 74 | 225 | 3.0 | 8.0 | 0.00 | 0.04 | 0.04 | 49 | 1005.5 |
| 20260504213017 | 73 | 225 | 5.0 | 17.0 | 0.00 | 0.04 | 0.04 | 50 | 1005.6 |
| 20260504212017 | 72 | 225 | 5.0 | 14.0 | 0.00 | 0.04 | 0.04 | 53 | 1005.8 |
| 20260504211017 | 71 | 293 | 3.0 | 11.0 | 0.00 | 0.04 | 0.04 | 65 | 1006.0 |
| 20260504210037 | 71 | 0.0 | 5.0 | 0.00 | 0.04 | 0.04 | 67 | 1006.3 | |
| 20260504205017 | 72 | 0.0 | 1.0 | 0.00 | 0.04 | 0.04 | 65 | 1006.3 | |
| 20260504204037 | 71 | 225 | 1.0 | 5.0 | 0.00 | 0.04 | 0.04 | 66 | 1006.5 |
| 20260504203017 | 70 | 293 | 1.0 | 12.0 | 0.00 | 0.04 | 0.04 | 68 | 1006.3 |
| 20260504202017 | 68 | 0.0 | 0.0 | 0.00 | 0.04 | 0.04 | 76 | 1006.3 | |
| 20260504201037 | 66 | 0.0 | 0.0 | 0.00 | 0.04 | 0.04 | 80 | 1006.6 | |
| 20260504200017 | 66 | 0.0 | 0.0 | 0.00 | 0.04 | 0.04 | 77 | 1006.8 | |
| 20260504195017 | 67 | 0.0 | 0.0 | 0.00 | 0.04 | 0.04 | 74 | 1007.1 | |
| 20260504194037 | 67 | 0.0 | 0.0 | 0.00 | 0.04 | 0.04 | 73 | 1007.9 | |
| 20260504193017 | 67 | 0.0 | 3.0 | 0.00 | 0.04 | 0.04 | 77 | 1007.7 | |
| 20260504192017 | 66 | 225 | 2.0 | 7.0 | 0.01 | 0.04 | 0.04 | 82 | 1007.4 |
| 20260504191017 | 64 | 248 | 2.0 | 8.0 | 0.02 | 0.04 | 0.04 | 85 | 1007.4 |
| 20260504190017 | 62 | 0.0 | 1.0 | 0.03 | 0.04 | 0.04 | 92 | 1007.2 | |
| 20260504185017 | 60 | 0.0 | 0.0 | 0.04 | 0.04 | 0.04 | 90 | 1007.6 | |
| 20260504184017 | 59 | 0.0 | 0.0 | 0.04 | 0.04 | 0.04 | 89 | 1007.8 | |
| 20260504183017 | 60 | 0.0 | 2.0 | 0.04 | 0.04 | 0.04 | 85 | 1007.2 | |
| 20260504182017 | 60 | 270 | 2.0 | 7.0 | 0.03 | 0.03 | 0.03 | 83 | 1008.2 |
| 20260504181017 | 61 | 270 | 5.0 | 22.0 | 0.02 | 0.02 | 0.02 | 81 | 1008.8 |
| 20260504180017 | 63 | 225 | 5.0 | 16.0 | 0.01 | 0.01 | 0.01 | 77 | 1008.7 |
| 20260504175017 | 64 | 270 | 4.0 | 16.0 | 0.00 | 0.00 | 0.00 | 74 | 1008.1 |
| 20260504174017 | 64 | 270 | 3.0 | 11.0 | 0.00 | 0.00 | 0.00 | 71 | 1008.0 |
| 20260504173037 | 64 | 203 | 3.0 | 10.0 | 0.00 | 0.00 | 0.00 | 73 | 1007.9 |
| 20260504172037 | 63 | 270 | 1.0 | 6.0 | 0.00 | 0.00 | 0.00 | 75 | 1007.5 |
| 20260504171017 | 63 | 225 | 1.0 | 6.0 | 0.00 | 0.00 | 0.00 | 75 | 1007.5 |
| 20260504151018 | 64 | 203 | 3.0 | 9.0 | 0.00 | 0.00 | 0.00 | 71 | 1008.6 |
| 20260504141017 | 63 | 225 | 2.0 | 8.0 | 0.00 | 0.00 | 0.00 | 70 | 1008.4 |